Location: Taipo
(41.0000°S, 175.9500°E)
Time: 06:51:20
(UTC+00:00)

SL-08 RB Rocket - Visible Passes

Search period start: 13 July 2024 00:00
Search period end: 23 July 2024 00:00
Orbit: 639 x 675 km, 97.8° (Epoch: 12 July)

Date Brightness Start Highest point End Pass type
(mag) Time Alt. Az. Time Alt. Az. Time Alt. Az.
13 Jul 6.5 06:51:55 10° SSW 06:54:12 14° WSW 06:56:28 10° W visible
14 Jul 4.2 05:42:09 10° S 05:46:41 65° WSW 05:51:06 10° NNW visible
15 Jul 5.4 06:11:18 10° S 06:15:20 32° WSW 06:19:19 10° NW visible
16 Jul 6.4 06:40:57 10° SSW 06:43:53 17° WSW 06:46:47 10° WNW visible
17 Jul 3.8 05:31:41 10° S 05:36:15 83° WSW 05:40:42 10° NNW visible
18 Jul 5.0 06:00:42 10° S 06:04:57 40° WSW 06:09:07 10° NW visible
19 Jul 6.1 06:30:07 10° SSW 06:33:31 21° WSW 06:36:53 10° WNW visible
20 Jul 6.7 07:00:39 10° SW 07:01:58 11° WSW 07:03:16 10° WSW visible
21 Jul 4.6 05:50:06 10° S 05:54:30 51° WSW 05:58:49 10° NNW visible
22 Jul 5.8 06:19:21 10° SSW 06:23:07 26° WSW 06:26:49 10° NW visible
